This is the latest recevied weather packets stored in our database for station/object N8QF-1. If no packets are shown the sender has not sent any weather packets the latest 1 day(s).
| Time | Temp. | Humidity | Pressure | Rain* | Wind** | Luminosity | Snow |
|---|---|---|---|---|---|---|---|
| 1778024798 | 16.11° C | 93% | 1007.1 hPa | 1.27 mm | 0 m/s | - | - |
| 1778024498 | 16.11° C | 93% | 1007 hPa | 1.27 mm | 0.89 m/s, 148° | - | - |
| 1778024197 | 16.11° C | 93% | 1007.1 hPa | 1.27 mm | 0.89 m/s, 142° | - | - |
| 1778023898 | 16.11° C | 93% | 1007.2 hPa | 1.27 mm | 1.34 m/s, 159° | - | - |
| 1778023596 | 16.11° C | 93% | 1007.2 hPa | 1.27 mm | 0.89 m/s, 215° | - | - |
| 1778023294 | 16.11° C | 93% | 1007.2 hPa | 1.27 mm | 1.34 m/s, 210° | - | - |
| 1778022994 | 16.11° C | 93% | 1007.2 hPa | 1.27 mm | 1.34 m/s, 184° | - | - |
| 1778022693 | 16.67° C | 93% | 1007.2 hPa | 1.27 mm | 0.45 m/s, 198° | - | - |
| 1778022393 | 16.67° C | 93% | 1007.3 hPa | 1.27 mm | 1.34 m/s, 208° | - | - |
| 1778022094 | 16.11° C | 93% | 1007.3 hPa | 1.27 mm | 2.24 m/s, 169° | - | - |
| 1778021792 | 16.11° C | 93% | 1007.3 hPa | 1.27 mm | 3.13 m/s, 153° | - | - |
| 1778021491 | 16.11° C | 93% | 1007.4 hPa | 2.03 mm | 0 m/s | - | - |
| 1778021190 | 16.11° C | 93% | 1007.5 hPa | 2.03 mm | 1.79 m/s, 215° | - | - |
| 1778020287 | 16.11° C | 94% | 1007.7 hPa | 2.03 mm | 2.24 m/s, 225° | - | - |
| 1778019687 | 16.11° C | 94% | 1007.9 hPa | 2.03 mm | 2.24 m/s, 204° | - | - |
| 1778018785 | 16.11° C | 93% | 1008 hPa | 2.03 mm | 0 m/s | - | - |
| 1778018484 | 16.11° C | 93% | 1007.9 hPa | 2.03 mm | 1.79 m/s, 191° | - | - |
| 1778018183 | 16.11° C | 93% | 1008.1 hPa | 2.03 mm | 3.13 m/s, 181° | - | - |
| 1778017883 | 16.11° C | 94% | 1008 hPa | 1.27 mm | 1.79 m/s, 188° | - | - |
| 1778017582 | 16.11° C | 94% | 1007.9 hPa | 1.27 mm | 1.34 m/s, 204° | - | - |
| 1778017282 | 16.11° C | 93% | 1007.9 hPa | 1.27 mm | 3.58 m/s, 217° | - | - |
| 1778016981 | 16.11° C | 93% | 1007.9 hPa | 1.27 mm | 3.58 m/s, 194° | - | - |
| 1778016681 | 16.11° C | 92% | 1008 hPa | 1.27 mm | 2.68 m/s, 148° | - | - |
| 1778016380 | 16.11° C | 92% | 1008 hPa | 1.27 mm | 3.58 m/s, 148° | - | - |
| 1778016080 | 16.67° C | 91% | 1008 hPa | 1.27 mm | 1.34 m/s, 203° | - | - |
* Rain latest hour (hover to see other rain measurements)
** Current wind speed in m/s (hover to see current wind gust speed)